Regional Weather Roundup
Issued by NWS

Home | Current Version | Previous Version | Graphics & Text | Print | Product List | Glossary On
Versions: 1 2 3 4 5 6 7 8 9 10 11 12 13 14 15 16 17 18 19 20 21 22 23 24 25 26 27 28 29 30 31 32 33 34 35 36 37 38 39 40 41 42 43 44 45 46 47 48 49 50
000
ASUS43 KIND 020759
RWRIN

WEATHER ROUNDUP FOR INDIANA
NATIONAL WEATHER SERVICE INDIANAPOLIS IN
300 AM EST MON MAR 02 2015

NOTE: "FAIR" INDICATES FEW OR NO CLOUDS BELOW 12,000 FEET WITH NO
SIGNIFICANT WEATHER AND/OR OBSTRUCTIONS TO VISIBILITY.

* - STATION DOES NOT REPORT WEATHER SUCH AS PRECIPITATION OR FOG.

+ - STATION NOT QUALITY CONTROLLED BY THE NATIONAL WEATHER SERVICE.
    USE DATA WITH CAUTION...ESPECIALLY DEWPOINT AND RELATIVE
    HUMIDITY OBSERVATIONS.

INZ001>003-010>013-019-020-020900-
NORTHWEST INDIANA

CITY           SKY/WX    TMP DP  RH WIND       PRES   REMARKS
VALPARAISO     NOT AVBL

$$

LMZ046-743>745-020900-
SOUTHERN LAKE MICHIGAN

STATION/POSITION TIME  TEMP WIND        PRES
                       AIR  DIR/SP/G
                 (UTC) (F)  (DEG/KT/KT) (MB)
MICHIGAN CITY    0700   19  250/ 10/ 12   N/A

$$

INZ004-005-014>016-021>024-020900-
NORTH CENTRAL INDIANA

CITY           SKY/WX    TMP DP  RH WIND       PRES   REMARKS
GOSHEN         MOCLDY    14  10  84 W10       30.34R WCI   1
SOUTH BEND     PTCLDY    18  10  71 NW10      30.36R WCI   6

$$

INZ006>009-017-018-025>027-020900-
NORTHEAST INDIANA

CITY           SKY/WX    TMP DP  RH WIND       PRES   REMARKS
ANGOLA *+      CLOUDY    18  14  86 W9        30.30R WCI   6
FORT WAYNE     MOCLDY    15  12  88 W12       30.37R WCI   2

$$

INZ028-029-035-036-043>045-051>053-020900-
WEST CENTRAL INDIANA

CITY           SKY/WX    TMP DP  RH WIND       PRES   REMARKS
CRAWFORDSVL +  PTCLDY    17  11  76 W12       30.44R WCI   5
GREENCASTLE +  MOCLDY    21  14  73 NW8       30.44R WCI  12
LAFAYETTE      PTCLDY    15  10  80 W6        30.44R WCI   6
TERRE HAUTE    MOCLDY    21  15  78 NW8       30.47R WCI  11

$$

INZ030>032-037>040-046>048-054>057-064-065-020900-
CENTRAL INDIANA

CITY           SKY/WX    TMP DP  RH WIND       PRES   REMARKS
GREENWOOD *+   PTCLDY    21  16  79 W6        30.42R WCI  14
INDIANAPOLIS   CLOUDY    21  16  81 W12       30.42R WCI   9
-EAGLE CREEK   PTCLDY    21  16  81 NW16      30.41R WCI   7
KOKOMO *+      PTCLDY    16   9  73 W13       30.40R WCI   2
MT COMFORT *+  PTCLDY    21  12  68 W9        30.41R WCI  11
SHELBYVILLE    PTCLDY    24  18  77 W8        30.40R WCI  15

$$

INZ033-034-041-042-049-050-058-059-020900-
EAST CENTRAL INDIANA

CITY           SKY/WX    TMP DP  RH WIND       PRES   REMARKS
MUNCIE         PTCLDY    17  13  84 W12       30.38R WCI   4

$$

INZ060-061-067>069-081>083-085>088-020900-
SOUTHWEST INDIANA

CITY           SKY/WX    TMP DP  RH WIND       PRES   REMARKS
EVANSVILLE     PTCLDY    28  22  78 N8        30.49R WCI  20
HUNTINGBURG *+ CLEAR     27  19  74 N8        30.47R WCI  18

$$

INZ062-063-066-070>080-084-089>092-020900-
SOUTH CENTRAL AND SOUTHEAST INDIANA

CITY           SKY/WX    TMP DP  RH WIND       PRES   REMARKS
BLOOMINGTON    PTCLDY    22  18  85 W5        30.43R WCI  16
SEYMOUR +      CLEAR     27  21  80 NW9       30.43R WCI  17

$$



USA.gov is the U.S. government's official web portal to all federal, state and local government web resources and services.